This is the latest recevied weather packets stored in our database for station/object N5ZP. If no packets are shown the sender has not sent any weather packets the latest 10 day(s).
| Time | Temp. | Humidity | Pressure | Rain* | Wind** | Luminosity | Snow |
|---|---|---|---|---|---|---|---|
| 1788552215 | 37.78° C | 38% | 1009.9 hPa | 0 mm | - | 584 W/m² | - |
| 1788551910 | 36.67° C | 40% | 1010 hPa | 0 mm | - | 591 W/m² | - |
| 1788551609 | 37.22° C | 40% | 1010.1 hPa | 0 mm | - | 600 W/m² | - |
| 1788551324 | 36.67° C | 42% | 1010 hPa | 0 mm | - | 612 W/m² | - |
| 1788551003 | 36.67° C | 44% | 1010.2 hPa | 0 mm | - | 613 W/m² | - |
| 1788550698 | 36.67° C | 43% | 1010.1 hPa | 0 mm | - | 624 W/m² | - |
| 1788550394 | 36.67° C | 44% | 1010.3 hPa | 0 mm | - | 633 W/m² | - |
| 1788550089 | 36.67° C | 44% | 1010.3 hPa | 0 mm | - | 637 W/m² | - |
| 1788549784 | 36.11° C | 46% | 1010.2 hPa | 0 mm | - | 640 W/m² | - |
| 1788549481 | 35.56° C | 45% | 1010.5 hPa | 0 mm | - | 648 W/m² | - |
| 1788549177 | 36.11° C | 45% | 1010.4 hPa | 0 mm | - | 660 W/m² | - |
| 1788548873 | 35.56° C | 46% | 1010.4 hPa | 0 mm | - | 664 W/m² | - |
| 1788548569 | 35° C | 46% | 1010.5 hPa | 0 mm | - | 643 W/m² | - |
| 1788548265 | 35.56° C | 45% | 1010.5 hPa | 0 mm | - | 626 W/m² | - |
| 1788547960 | 35° C | 46% | 1010.6 hPa | 0 mm | - | 667 W/m² | - |
| 1788547658 | 36.11° C | 41% | 1010.8 hPa | 0 mm | - | 514 W/m² | - |
| 1788547355 | 35.56° C | 43% | 1010.7 hPa | 0 mm | - | 731 W/m² | - |
| 1788547050 | 34.44° C | 45% | 1010.8 hPa | 0 mm | - | 746 W/m² | - |
| 1788546744 | 34.44° C | 43% | 1011.1 hPa | 0 mm | - | 461 W/m² | - |
| 1788546439 | 35° C | 43% | 1010.9 hPa | 0 mm | - | 701 W/m² | - |
| 1788546163 | 35° C | 43% | 1011.1 hPa | 0 mm | - | 716 W/m² | - |
| 1788545830 | 34.44° C | 44% | 1011.2 hPa | 0 mm | - | 707 W/m² | - |
| 1788545529 | 34.44° C | 42% | 1011.2 hPa | 0 mm | - | 697 W/m² | - |
| 1788545226 | 35° C | 42% | 1011.3 hPa | 0 mm | - | 719 W/m² | - |
| 1788544921 | 35.56° C | 42% | 1011.5 hPa | 0 mm | - | 731 W/m² | - |
* Rain latest hour (hover to see other rain measurements)
** Current wind speed in m/s (hover to see current wind gust speed)